sat.trackr.live / text

‹ back to catalog

NEMO-HD

NORAD 46277 · 2020-061F

PAYLOAD ACTIVE UNKNOWN

§ Identity

Operator
Country
SVN
Launch date
2020-09-03
Launch site
FRGUI
Launch vehicle
Mass (kg)
RCS (m²)

Purposes: earth_obs

External: N2YO · Heavens-Above · Gunter

§ Orbital elements

Epoch: 2026-09-20T04:18:11.268576Z

Period
93.13 min
Inclination
97.1819°
Eccentricity
0.0002428
Mean motion
15.46289892 rev/d
Perigee alt
425.9 km
Apogee alt
429.2 km
Semi-major
6,805.7 km
B*
1.5036e-4
RAAN
324.2333°
Arg perigee
81.7305°
Mean anomaly
278.4220°
Rev number
33,665

§ Raw data

NEMO-HD1 46277U 20061F   26263.17929709  .00007319  00000+0  15036-3 0  99952 46277  97.1819 324.2333 0002428  81.7305 278.4220 15.46289892336655

JSON: /api/v1/satellites/46277 · /tle

For live sub-satellite position, see the globe view (requires WebGL).

§ Visibility from observer

Set your observer location to see the next 7 days of passes ≥ 10°. The values pass through the URL so the page stays shareable.

No JS? Fill the form by hand. The geolocation button needs JavaScript.

§ Radio — SatNOGS DB

ModeDescriptionDownlinkUplink
QPSK 375 BW QPSK 8.212 GHz

1 transmitter · refreshed weekly from db.satnogs.org